User: anonymous
Location: Kitchener
(43.4500°N, 80.5000°W)
Time: 06:00:25
(UTC-04:00)
Language:

Cosmos 1939 Rocket - Orbit

View from above orbital plane
View from above orbital plane
View from above satellite
View from above satellite

Ground track
Ground track

The orbit data is extracted from the following two-line orbital elements,

1 19046U 88032B   14237.26799382  .00000763  00000-0  66033-4 0  9622
2 19046 097.6404 290.6042 0035987 227.5789 132.2389 14.99636367418552
Epoch (UTC): 25 August 2014 06:25:54
Eccentricity: 0.0035987
inclination: 97.6404°
perigee height: 543 km
apogee height: 593 km
right ascension of ascending node: 290.6042°
argument of perigee: 227.5789°
revolutions per day: 14.99636367
mean anomaly at epoch: 132.2389°
orbit number at epoch: 41855

The dashed part of the orbit path shows where the satellite is in the earth's shadow,  

DLR